When you browse on this site, cookies collect data to enhance your experience and personalize the content and advertising you see.
Visit our Privacy Policy to learn more. By continuing to use the site, you agree to this use of cookies and data.
  • In Czech Republic
  • List of Countries
  • For 7 days
  • Water Temperature
  • Satellite Maps
  • Weather Map
  • Weather Widgets
  • user-avatar
    Login

    Hourly Weather Zagate

    Today, 23 May, Thursday

    Time Temperature Precipitation Wind Pressure Humidity
    00:00 +16°C° 0 mm 1 mps 742 mmHg 72%
    01:00 +15°C° 0 mm 1 mps 742 mmHg 74%
    02:00 +14°C° 0 mm 1 mps 742 mmHg 76%
    03:00 +14°C° 0 mm 1 mps 742 mmHg 76%
    04:00 +14°C° 0 mm 1 mps 742 mmHg 77%
    05:00 +14°C° 0 mm 1 mps 742 mmHg 78%
    06:00 +18°C° 0 mm 1 mps 742 mmHg 71%
    07:00 +20°C° 0 mm 1 mps 742 mmHg 64%
    08:00 +22°C° 0 mm 1 mps 742 mmHg 57%
    09:00 +23°C° 0 mm 1 mps 742 mmHg 51%
    10:00 +25°C° 0 mm 1 mps 742 mmHg 46%
    11:00 +26°C° 0 mm 2 mps 742 mmHg 41%
    12:00 +26°C° 0 mm 2 mps 742 mmHg 41%
    13:00 +26°C° 0 mm 2 mps 742 mmHg 41%
    14:00 +26°C° 0 mm 2 mps 742 mmHg 41%
    15:00 +26°C° 0 mm 2 mps 742 mmHg 44%
    16:00 +26°C° 0 mm 2 mps 741 mmHg 47%
    17:00 +25°C° 0 mm 2 mps 741 mmHg 49%
    18:00 +24°C° 0 mm 2 mps 741 mmHg 56%
    19:00 +21°C° 0 mm 2 mps 741 mmHg 63%
    20:00 +20°C° 0 mm 1 mps 741 mmHg 69%
    21:00 +19°C° 0 mm 1 mps 741 mmHg 72%
    22:00 +17°C° 0 mm 2 mps 741 mmHg 75%
    23:00 +16°C° 0 mm 2 mps 741 mmHg 78%

    Tomorrow, 24 May, Friday

    Time Temperature Precipitation Wind Pressure Humidity
    00:00 +16°C° 0 mm 2 mps 741 mmHg 80%
    01:00 +15°C° 0 mm 1 mps 742 mmHg 82%
    02:00 +15°C° 0 mm 1 mps 742 mmHg 85%
    03:00 +15°C° 0 mm 1 mps 742 mmHg 85%
    04:00 +15°C° 0 mm 1 mps 742 mmHg 85%
    05:00 +15°C° 0 mm 1 mps 742 mmHg 85%
    06:00 +18°C° 0 mm 1 mps 742 mmHg 78%
    07:00 +20°C° 0 mm 1 mps 742 mmHg 70%
    08:00 +23°C° 0 mm 1 mps 742 mmHg 62%
    09:00 +24°C° 0 mm 1 mps 742 mmHg 56%
    10:00 +25°C° 0 mm 1 mps 742 mmHg 49%
    11:00 +27°C° 0 mm 1 mps 742 mmHg 43%
    12:00 +27°C° 0 mm 1 mps 742 mmHg 43%
    13:00 +26°C° 0 mm 1 mps 742 mmHg 44%
    14:00 +26°C° 0 mm 1 mps 742 mmHg 45%
    15:00 +26°C° 0.1 mm 1 mps 741 mmHg 49%
    16:00 +25°C° 0.1 mm 2 mps 741 mmHg 53%
    17:00 +25°C° 0.1 mm 2 mps 741 mmHg 57%
    18:00 +23°C° 0.2 mm 1 mps 741 mmHg 65%
    19:00 +21°C° 0.2 mm 1 mps 741 mmHg 72%
    20:00 +20°C° 0.2 mm 1 mps 741 mmHg 79%
    21:00 +19°C° 0.1 mm 1 mps 741 mmHg 82%
    22:00 +18°C° 0.1 mm 1 mps 741 mmHg 85%
    23:00 +16°C° 0.1 mm 1 mps 741 mmHg 88%

    Day after tomorrow, 25 May, Saturday

    Time Temperature Precipitation Wind Pressure Humidity
    00:00 +15°C° 0.1 mm 0 mps 740 mmHg 89%
    01:00 +15°C° 0.1 mm 0 mps 740 mmHg 91%
    02:00 +14°C° 0.1 mm 0 mps 740 mmHg 92%
    03:00 +14°C° 0.1 mm 0 mps 740 mmHg 92%
    04:00 +15°C° 0.1 mm 0 mps 740 mmHg 92%
    05:00 +15°C° 0.1 mm 0 mps 740 mmHg 92%
    06:00 +18°C° 0.1 mm 1 mps 740 mmHg 89%
    07:00 +19°C° 0.1 mm 1 mps 740 mmHg 86%
    08:00 +20°C° 0.1 mm 1 mps 740 mmHg 83%
    09:00 +21°C° 1.2 mm 1 mps 740 mmHg 79%
    10:00 +22°C° 1.2 mm 1 mps 740 mmHg 74%
    11:00 +23°C° 1.2 mm 2 mps 740 mmHg 69%
    12:00 +23°C° 1.7 mm 2 mps 739 mmHg 73%
    13:00 +21°C° 1.7 mm 2 mps 739 mmHg 76%
    14:00 +21°C° 1.7 mm 3 mps 739 mmHg 79%
    15:00 +21°C° 0.3 mm 3 mps 739 mmHg 77%
    16:00 +21°C° 0.3 mm 2 mps 739 mmHg 76%
    17:00 +21°C° 0.3 mm 2 mps 738 mmHg 74%
    18:00 +19°C° 0.1 mm 2 mps 738 mmHg 77%
    19:00 +18°C° 0.1 mm 2 mps 739 mmHg 80%
    20:00 +18°C° 0.1 mm 1 mps 739 mmHg 84%
    21:00 +16°C° 0 mm 2 mps 739 mmHg 85%
    22:00 +15°C° 0 mm 2 mps 739 mmHg 86%
    23:00 +13°C° 0 mm 3 mps 739 mmHg 88%

    26 May, Sunday

    Time Temperature Precipitation Wind Pressure Humidity
    00:00 +12°C° 0 mm 3 mps 739 mmHg 90%
    01:00 +12°C° 0 mm 3 mps 739 mmHg 92%
    02:00 +11°C° 0 mm 3 mps 739 mmHg 94%
    03:00 +10°C° 0 mm 3 mps 740 mmHg 94%
    04:00 +10°C° 0 mm 2 mps 740 mmHg 93%
    05:00 +9°C° 0 mm 2 mps 740 mmHg 92%
    06:00 +12°C° 0 mm 2 mps 740 mmHg 84%
    07:00 +12°C° 0 mm 3 mps 740 mmHg 76%
    08:00 +14°C° 0 mm 4 mps 740 mmHg 67%
    09:00 +15°C° 0 mm 4 mps 740 mmHg 62%
    10:00 +18°C° 0 mm 4 mps 740 mmHg 56%
    11:00 +19°C° 0 mm 4 mps 740 mmHg 51%
    12:00 +19°C° 0 mm 5 mps 739 mmHg 49%
    13:00 +20°C° 0 mm 5 mps 739 mmHg 48%
    14:00 +21°C° 0 mm 5 mps 739 mmHg 47%
    15:00 +20°C° 0.2 mm 5 mps 739 mmHg 54%
    16:00 +19°C° 0.2 mm 5 mps 738 mmHg 61%
    17:00 +17°C° 0.2 mm 5 mps 738 mmHg 69%
    18:00 +15°C° 0.3 mm 5 mps 738 mmHg 76%
    19:00 +13°C° 0.3 mm 5 mps 738 mmHg 83%
    20:00 +9°C° 0.3 mm 5 mps 738 mmHg 90%
    21:00 +10°C° 0.1 mm 4 mps 739 mmHg 91%
    22:00 +8°C° 0.1 mm 4 mps 739 mmHg 92%
    23:00 +8°C° 0.1 mm 4 mps 739 mmHg 92%

    27 May, Monday

    Time Temperature Precipitation Wind Pressure Humidity
    00:00 +7°C° 0 mm 4 mps 739 mmHg 93%
    01:00 +7°C° 0 mm 4 mps 739 mmHg 93%
    02:00 +6°C° 0 mm 4 mps 740 mmHg 93%
    03:00 +6°C° 0 mm 4 mps 740 mmHg 92%
    04:00 +6°C° 0 mm 4 mps 740 mmHg 91%
    05:00 +6°C° 0 mm 4 mps 740 mmHg 90%
    06:00 +7°C° 0.1 mm 5 mps 741 mmHg 85%
    07:00 +8°C° 0.1 mm 5 mps 741 mmHg 80%
    08:00 +10°C° 0.1 mm 6 mps 742 mmHg 75%
    09:00 +11°C° 0 mm 6 mps 742 mmHg 70%
    10:00 +13°C° 0 mm 6 mps 743 mmHg 65%
    11:00 +14°C° 0 mm 6 mps 743 mmHg 61%
    12:00 +14°C° 0 mm 5 mps 744 mmHg 60%
    13:00 +15°C° 0 mm 5 mps 744 mmHg 59%
    14:00 +15°C° 0 mm 5 mps 744 mmHg 58%
    15:00 +17°C° 0 mm 4 mps 744 mmHg 58%
    16:00 +17°C° 0 mm 4 mps 744 mmHg 57%
    17:00 +18°C° 0 mm 4 mps 744 mmHg 57%
    18:00 +16°C° 0 mm 3 mps 744 mmHg 65%
    19:00 +15°C° 0 mm 2 mps 745 mmHg 72%
    20:00 +13°C° 0 mm 2 mps 745 mmHg 80%
    21:00 +12°C° 0 mm 2 mps 745 mmHg 84%
    22:00 +10°C° 0 mm 2 mps 745 mmHg 87%
    23:00 +10°C° 0 mm 2 mps 745 mmHg 91%

    28 May, Tuesday

    Time Temperature Precipitation Wind Pressure Humidity
    00:00 +9°C° 0 mm 2 mps 745 mmHg 92%
    01:00 +9°C° 0 mm 2 mps 745 mmHg 93%
    02:00 +9°C° 0 mm 2 mps 745 mmHg 94%
    03:00 +10°C° 0 mm 2 mps 745 mmHg 91%
    04:00 +10°C° 0 mm 2 mps 745 mmHg 89%
    05:00 +10°C° 0 mm 2 mps 745 mmHg 87%
    06:00 +12°C° 0 mm 3 mps 745 mmHg 79%
    07:00 +14°C° 0 mm 4 mps 745 mmHg 72%
    08:00 +17°C° 0 mm 4 mps 745 mmHg 65%
    09:00 +17°C° 0.6 mm 4 mps 744 mmHg 71%
    10:00 +17°C° 0.6 mm 4 mps 744 mmHg 78%
    11:00 +16°C° 0.6 mm 5 mps 744 mmHg 85%
    12:00 +15°C° 4.7 mm 5 mps 743 mmHg 88%
    13:00 +15°C° 4.7 mm 5 mps 742 mmHg 91%
    14:00 +14°C° 4.7 mm 5 mps 742 mmHg 95%
    15:00 +16°C° 0.6 mm 5 mps 741 mmHg 91%
    16:00 +19°C° 0.6 mm 5 mps 741 mmHg 87%
    17:00 +21°C° 0.6 mm 5 mps 740 mmHg 83%
    18:00 +20°C° 1.5 mm 4 mps 740 mmHg 86%
    19:00 +19°C° 1.5 mm 4 mps 740 mmHg 89%
    20:00 +19°C° 1.5 mm 4 mps 740 mmHg 91%
    21:00 +18°C° 0.2 mm 4 mps 740 mmHg 93%
    22:00 +18°C° 0.2 mm 3 mps 740 mmHg 94%
    23:00 +18°C° 0.2 mm 3 mps 740 mmHg 95%
    Show more